"America/Chicago Time","Lifetime Energy (kWh)","Power (W)","AC Volts RMS (V) ","AC Amps RMS (mA)","Grid Frequency (Hz)","Inverter Temperature (C)"
"08/06/12 09:54:23","146.9865","118.3","216.61","555","60.0","32"
"08/06/12 09:59:23","146.9958","119.6","216.17","560","60.03","32"
"08/06/12 10:04:24","147.0053","121.0","215.97","569","60.03","33"
"08/06/12 10:09:23","147.0148","123.5","215.9","579","60.03","33"
"08/06/12 10:14:22","147.0245","126.9","215.68","593","60.0","33"
"08/06/12 10:19:24","147.0344","126.3","215.78","591","60.03","33"
"08/06/12 10:24:23","147.0443","128.5","215.45","600","60.0","34"
"08/06/12 10:29:23","147.0544","131.7","216.14","611","60.0","34"
"08/06/12 10:34:24","147.0647","132.9","216.36","619","60.0","34"
"08/06/12 10:39:24","147.0752","134.7","216.93","621","60.0","34"
"08/06/12 10:44:23","147.0856","136.6","216.87","634","60.03","34"
"08/06/12 10:49:23","147.0963","136.7","216.07","634","60.03","35"
"08/06/12 10:54:22","147.1071","138.9","216.2","643","60.03","35"
"08/06/12 10:59:22","147.118","140.9","218.0","649","60.03","35"
"08/06/12 11:04:23","147.1289","140.8","217.94","649","60.0","36"
"08/06/12 11:09:23","147.1401","142.6","218.16","657","60.0","36"
"08/06/12 11:14:24","147.1512","143.3","217.32","661","60.03","36"
"08/06/12 11:19:23","147.1624","144.9","217.11","665","60.0","36"
"08/06/12 11:24:24","147.1738","146.2","217.97","665","60.03","36"
"08/06/12 11:29:24","147.1851","143.6","217.87","659","60.03","37"
"08/06/12 11:34:23","147.1964","147.4","217.01","675","60.0","37"
"08/06/12 11:39:22","147.2079","148.4","215.81","683","60.03","36"
"08/06/12 11:44:23","147.2195","148.6","216.27","686","60.03","37"
"08/06/12 11:49:23","147.2312","150.2","216.66","688","60.03","36"
"08/06/12 11:54:23","147.2429","150.4","215.91","694","60.0","37"
"08/06/12 11:59:22","147.2544","151.2","215.65","696","60.03","37"
"08/06/12 12:04:23","147.2661","151.4","216.17","695","60.03","37"
"08/06/12 12:09:23","147.2781","153.5","216.04","702","60.0","38"
"08/06/12 12:14:23","147.2896","142.2","215.87","661","60.0","38"
"08/06/12 12:19:24","147.301","144.4","217.2","658","60.0","38"
"08/06/12 12:24:22","147.3126","153.6","217.44","702","60.03","38"
"08/06/12 12:29:22","147.3245","153.1","215.59","709","60.0","38"
"08/06/12 12:34:24","147.3366","155.6","216.89","710","60.03","38"
"08/06/12 12:39:22","147.3487","154.1","216.6","707","60.0","38"
"08/06/12 12:44:23","147.3602","115.8","216.08","540","60.0","37"
"08/06/12 12:49:24","147.3693","25.6","213.55","225","60.03","36"
"08/06/12 12:54:23","147.3799","154.7","217.49","708","60.03","37"
"08/06/12 12:59:22","147.3921","155.8","217.2","713","60.0","37"
"08/06/12 13:04:22","147.4041","157.6","216.75","724","60.03","37"
"08/06/12 13:09:23","147.415","65.8","213.11","332","60.03","37"
"08/06/12 13:14:23","147.4261","158.4","216.8","726","60.03","37"
"08/06/12 13:19:23","147.4378","142.1","218.33","651","60.0","37"
"08/06/12 13:24:23","147.449","151.6","217.7","692","60.03","37"
"08/06/12 13:29:23","147.4607","148.3","218.75","680","60.0","37"
"08/06/12 13:34:23","147.4716","119.3","216.58","555","60.03","37"
"08/06/12 13:39:22","147.4785","65.2","215.13","331","60.03","35"
"08/06/12 13:44:23","147.4873","165.1","217.43","750","60.0","36"
"08/06/12 13:49:24","147.4986","141.5","216.45","658","60.03","36"
"08/06/12 13:54:22","147.5087","130.0","217.25","601","60.0","36"
"08/06/12 13:59:23","147.5189","125.7","216.28","586","60.03","37"
"08/06/12 14:04:22","147.5284","131.6","217.46","611","60.07","37"
"08/06/12 14:09:24","147.5388","130.9","217.18","606","60.03","37"
"08/06/12 14:14:23","147.5492","119.0","216.83","557","60.03","37"
"08/06/12 14:19:23","147.5574","115.4","217.47","536","60.0","37"
"08/06/12 14:24:23","147.5657","114.0","217.63","532","60.03","37"
"08/06/12 14:29:23","147.5746","84.6","217.07","409","60.03","37"
"08/06/12 14:34:22","147.5838","107.4","217.18","506","60.0","37"
"08/06/12 14:39:23","147.5924","123.9","217.63","574","60.03","37"
"08/06/12 14:44:23","147.6011","78.3","216.35","381","60.03","37"
"08/06/12 14:49:23","147.6112","140.4","217.42","644","60.03","38"
"08/06/12 14:54:24","147.6219","137.8","217.16","632","60.03","38"
"08/06/12 14:59:23","147.632","102.1","217.16","487","60.03","37"
"08/06/12 15:04:23","147.6414","103.8","216.66","495","60.03","38"
"08/06/12 15:09:24","147.6488","66.6","215.16","333","60.03","36"
"08/06/12 15:14:23","147.6544","40.7","214.57","394","60.03","35"
"08/06/12 15:19:24","147.658","37.6","214.15","344","60.03","35"
"08/06/12 15:24:23","147.6617","49.1","214.27","360","60.0","34"
"08/06/12 15:29:23","147.6649","38.7","214.8","228","60.03","33"
"08/06/12 15:34:24","147.6671","23.4","214.64","243","60.03","32"
"08/06/12 15:39:22","147.6688","14.8","213.89","46","60.0","32"
"08/06/12 15:44:22","147.6701","31.4","214.64","223","60.0","32"
"08/06/12 15:49:23","147.6721","19.2","214.27","160","60.0","31"
"08/06/12 15:54:22","147.6742","25.7","214.07","61","60.0","31"
"08/06/12 15:59:23","147.6758","14.2","214.24","22","60.07","30"
"08/06/12 16:04:24","147.6769","11.7","215.08","93","60.03","30"
"08/06/12 16:09:23","147.6782","19.5","214.83","204","60.03","30"
"08/06/12 16:14:22","147.6796","10.6","214.78","168","60.0","30"
"08/06/12 16:19:23","147.6804","14.6","214.21","254","60.03","29"
"08/06/12 16:24:24","147.6811","7.4","213.85","0","60.03","29"
"08/06/12 16:29:24","147.6823","31.1","215.51","98","60.03","29"
"08/06/12 16:34:23","147.6841","32.7","215.02","63","60.03","29"
"08/06/12 16:39:23","147.6867","41.9","214.7","296","60.0","29"
"08/06/12 16:44:23","147.6894","31.9","214.33","158","60.0","30"
"08/06/12 16:49:23","147.6914","31.7","214.04","250","60.0","30"
"08/06/12 16:54:22","147.6932","14.2","214.2","179","60.03","30"
"08/06/12 16:59:24","147.6943","14.5","214.76","0","60.07","29"
"08/06/12 17:04:23","147.695","12.3","214.82","58","60.03","29"
"08/06/12 17:09:24","147.6957","0.0","215.4","0","60.0","29"
"08/06/12 17:14:24","147.6961","10.8","214.76","1","60.03","29"
"08/06/12 17:19:24","147.6965","11.0","214.66","0","60.0","29"
"08/06/12 17:24:23","147.6972","8.5","214.35","0","60.03","28"
"08/06/12 17:29:24","147.6979","4.2","213.75","199","60.03","28"
"08/06/12 17:34:23","147.6984","0.0","213.3","0","60.03","28"
"08/06/12 17:39:24","147.699","34.0","214.35","83","60.03","28"
"08/06/12 17:44:24","147.701","25.2","214.97","45","60.03","28"
"08/06/12 17:49:24","147.7031","43.7","215.25","246","60.03","29"
"08/06/12 17:54:23","147.7056","33.0","214.82","57","60.03","29"
"08/06/12 17:59:23","147.7084","34.6","214.76","143","60.07","30"
"08/06/12 18:04:23","147.71","23.2","215.06","188","60.03","30"
"08/06/12 18:09:24","147.7115","19.1","215.08","20","60.0","30"
"08/06/12 18:14:24","147.7137","27.1","215.26","242","60.03","30"
"08/06/12 18:19:23","147.7155","28.9","214.31","161","60.03","30"
"08/06/12 18:24:23","147.7166","14.0","214.32","12","60.03","31"
"08/06/12 18:29:24","147.7178","25.8","214.31","278","60.03","31"
"08/06/12 18:34:24","147.7189","15.7","214.34","4","60.07","31"
"08/06/12 18:39:24","147.7197","0.0","215.01","0","60.03","30"
"08/07/12 06:34:26","147.7208","0.0","216.75","0","60.03","19"
"08/07/12 06:39:27","147.7211","0.0","215.07","0","60.07","20"
"08/07/12 06:44:27","147.7214","0.0","214.95","0","60.03","20"
"08/07/12 06:49:28","147.7219","13.0","214.03","0","60.07","20"
"08/07/12 06:54:28","147.7227","3.6","214.23","48","60.03","20"
"08/07/12 06:59:26","147.7237","7.5","212.64","246","60.03","20"
"08/07/12 07:04:28","147.7248","16.6","213.47","108","60.07","21"
"08/07/12 07:09:26","147.7262","20.6","215.32","47","60.03","21"
"08/07/12 07:14:26","147.7278","33.6","215.24","47","60.03","22"
"08/07/12 07:19:26","147.7295","15.4","214.74","226","60.03","22"
"08/07/12 07:24:27","147.731","28.7","214.92","246","60.0","22"
"08/07/12 07:29:27","147.7326","17.8","215.36","167","60.0","23"
"08/07/12 07:34:27","147.735","42.1","214.88","319","60.07","23"
"08/07/12 07:39:28","147.738","35.6","215.38","101","60.03","24"
"08/07/12 07:44:26","147.7412","37.8","215.19","106","60.03","24"
"08/07/12 07:49:28","147.7447","42.2","214.09","266","60.03","25"
"08/07/12 07:54:26","147.7485","47.8","214.9","385","60.03","25"
"08/07/12 07:59:27","147.7524","48.3","215.33","387","60.0","26"
"08/07/12 08:04:27","147.7563","49.6","215.3","344","60.03","26"
"08/07/12 08:09:27","147.7602","54.7","215.73","106","60.03","26"
"08/07/12 08:14:27","147.7642","42.8","215.03","155","60.0","27"
"08/07/12 08:19:28","147.7684","67.6","215.53","273","60.0","27"
"08/07/12 08:24:26","147.7729","69.2","216.51","385","60.03","27"
"08/07/12 08:29:27","147.7781","75.0","216.18","369","60.0","27"
"08/07/12 08:34:26","147.7837","75.1","216.87","371","60.03","28"
"08/07/12 08:39:27","147.7899","81.2","217.18","396","60.0","28"
"08/07/12 08:44:28","147.7963","84.3","217.02","406","60.03","28"
"08/07/12 08:49:28","147.803","86.7","217.18","420","60.0","28"
"08/07/12 08:54:27","147.8098","90.1","217.88","430","60.03","29"
"08/07/12 08:59:26","147.8169","92.7","216.44","445","60.03","29"
"08/07/12 09:04:26","147.8242","95.2","214.81","458","60.03","30"
"08/07/12 09:09:28","147.8318","98.7","216.48","468","60.0","30"
"08/07/12 09:14:27","147.8394","100.8","216.82","479","60.03","30"
"08/07/12 09:19:28","147.8475","103.1","216.63","490","60.0","31"
"08/07/12 09:24:26","147.8555","105.5","217.13","496","60.0","31"
"08/07/12 09:29:27","147.8638","107.6","216.66","509","60.03","31"
"08/07/12 09:34:26","147.8723","110.0","217.3","516","60.03","32"
"08/07/12 09:39:27","147.881","112.3","216.99","530","60.03","32"
"08/07/12 09:44:27","147.8899","115.5","217.0","540","60.0","32"
"08/07/12 09:49:27","147.8989","117.0","218.54","547","60.03","32"
"08/07/12 09:54:27","147.9082","118.8","218.11","553","60.03","32"
"08/07/12 09:59:28","147.9175","121.6","217.77","563","60.03","32"
"08/07/12 10:04:27","147.927","123.1","217.59","570","60.03","32"
"08/07/12 10:09:27","147.9367","125.6","218.14","577","60.0","33"
"08/07/12 10:14:26","147.9465","126.8","218.26","588","60.03","33"
"08/07/12 10:19:26","147.9565","129.0","218.34","596","60.03","33"
"08/07/12 10:24:27","147.9666","130.8","218.34","602","60.0","33"
"08/07/12 10:29:28","147.9769","133.2","216.98","619","60.0","33"
"08/07/12 10:34:26","147.9872","133.5","217.55","619","60.0","34"
"08/07/12 10:39:26","147.9977","134.9","217.27","621","60.0","34"
"08/07/12 10:44:26","148.0082","137.4","217.35","630","60.0","35"
"08/07/12 10:49:27","148.019","138.1","217.09","637","60.03","35"
"08/07/12 10:54:27","148.0298","140.3","217.94","645","60.03","35"
"08/07/12 10:59:27","148.0408","141.2","218.67","650","60.03","35"
"08/07/12 11:04:28","148.0519","144.4","217.97","658","60.0","35"
"08/07/12 11:09:28","148.0632","144.9","221.64","651","60.0","35"
"08/07/12 11:14:28","148.0745","146.8","218.97","665","59.96","35"
"08/07/12 11:19:26","148.0859","147.2","218.71","669","60.0","35"
"08/07/12 11:24:27","148.0974","148.3","214.55","692","60.03","35"
"08/07/12 11:29:27","148.1091","149.2","216.82","681","60.0","35"
"08/07/12 11:34:28","148.1207","150.4","218.01","688","60.03","36"
"08/07/12 11:39:26","148.1324","149.6","218.77","681","60.0","36"
"08/07/12 11:44:27","148.1441","150.1","219.17","682","60.03","36"
"08/07/12 11:49:27","148.1558","150.6","217.29","694","60.03","36"
"08/07/12 11:54:26","148.1675","151.8","219.92","693","60.03","36"
"08/07/12 11:59:27","148.1794","152.8","219.6","695","60.07","37"
"08/07/12 12:04:27","148.1913","153.5","219.04","694","60.03","37"
"08/07/12 12:09:28","148.2032","152.5","218.17","695","60.03","37"
"08/07/12 12:14:28","148.215","152.9","218.75","693","60.0","38"
"08/07/12 12:19:26","148.2269","154.0","218.76","701","60.0","38"
"08/07/12 12:24:27","148.2389","155.1","218.35","708","60.03","38"
"08/07/12 12:29:27","148.2511","157.1","218.33","715","60.0","37"
"08/07/12 12:34:27","148.2633","156.2","218.18","714","60.0","37"
"08/07/12 12:39:26","148.2754","157.1","218.37","715","60.0","37"
"08/07/12 12:44:26","148.2876","155.4","218.05","711","60.03","37"
"08/07/12 12:49:27","148.2997","154.3","218.99","700","60.0","37"
"08/07/12 12:54:27","148.3117","154.8","218.9","700","60.03","37"
"08/07/12 12:59:27","148.3237","154.0","219.39","699","60.07","37"
"08/07/12 13:04:27","148.3358","152.7","218.83","694","60.0","37"
"08/07/12 13:09:27","148.3478","154.1","218.97","697","60.03","37"
"08/07/12 13:14:28","148.3598","153.2","219.01","700","60.03","37"
"08/07/12 13:19:27","148.3717","152.6","218.29","692","60.0","37"
"08/07/12 13:24:28","148.3835","152.3","218.82","689","60.0","37"
"08/07/12 13:29:27","148.3953","150.0","218.46","683","60.0","38"
"08/07/12 13:34:28","148.407","150.1","219.39","683","60.03","38"
"08/07/12 13:39:26","148.4186","148.0","219.58","674","60.03","38"
"08/07/12 13:44:28","148.4301","148.2","219.22","674","60.03","38"
"08/07/12 13:49:27","148.4416","147.1","219.45","671","60.0","38"
"08/07/12 13:54:27","148.453","146.4","219.05","667","60.03","38"
"08/07/12 13:59:26","148.4643","145.0","218.8","666","60.03","38"
"08/07/12 14:04:26","148.4756","146.2","218.4","668","60.0","38"
"08/07/12 14:09:28","148.487","144.1","218.44","657","60.0","38"
"08/07/12 14:14:27","148.498","141.0","217.46","652","60.0","38"
"08/07/12 14:19:27","148.5091","142.7","217.63","652","60.03","37"
"08/07/12 14:24:28","148.5201","138.7","217.46","641","60.03","37"
"08/07/12 14:29:27","148.5308","137.7","217.94","632","60.0","37"
"08/07/12 14:34:27","148.5415","136.8","217.97","628","60.0","37"
"08/07/12 14:39:27","148.5521","135.5","218.29","621","60.03","37"
"08/07/12 14:44:27","148.5626","133.2","217.99","614","60.03","37"
"08/07/12 14:49:27","148.5729","131.0","217.78","608","60.03","37"
"08/07/12 14:54:28","148.5831","129.6","217.21","600","60.0","37"
"08/07/12 14:59:28","148.5932","129.1","217.29","601","60.0","36"
"08/07/12 15:04:28","148.6033","127.6","217.46","592","60.03","36"
"08/07/12 15:09:27","148.6131","125.4","217.08","583","60.03","35"
"08/07/12 15:14:27","148.6227","121.9","216.65","573","60.0","35"
"08/07/12 15:19:27","148.6322","121.5","217.27","567","60.0","35"
"08/07/12 15:24:26","148.6416","120.3","217.04","564","60.03","35"
"08/07/12 15:29:28","148.651","118.2","217.87","552","60.03","34"
"08/07/12 15:34:26","148.66","116.1","217.81","544","60.03","34"
"08/07/12 15:39:26","148.669","113.0","217.61","532","60.0","33"
"08/07/12 15:44:27","148.6776","109.6","217.4","514","60.03","33"
"08/07/12 15:49:26","148.686","106.1","216.74","500","60.03","34"
"08/07/12 15:54:28","148.6942","103.9","216.1","493","60.0","34"
"08/07/12 15:59:28","148.7023","101.8","216.91","483","60.03","34"
"08/07/12 16:04:27","148.7101","99.8","217.01","473","60.03","34"
"08/07/12 16:09:28","148.7178","97.4","216.87","464","60.0","33"
"08/07/12 16:14:27","148.7252","93.7","216.73","452","60.0","33"
"08/07/12 16:19:28","148.7324","91.0","216.74","435","60.03","33"
"08/07/12 16:24:27","148.7394","88.3","216.66","427","60.03","33"
"08/07/12 16:29:28","148.7462","85.7","215.47","417","60.03","33"
"08/07/12 16:34:27","148.7527","83.3","216.08","403","60.03","32"
"08/07/12 16:39:26","148.7591","80.7","215.03","394","60.03","32"
"08/07/12 16:44:26","148.7652","77.0","215.32","380","60.03","32"
"08/07/12 16:49:26","148.7711","73.6","215.64","366","60.0","32"
"08/07/12 16:54:26","148.7766","70.6","215.78","348","60.03","32"
"08/07/12 16:59:27","148.782","66.8","215.92","335","60.03","31"
"08/07/12 17:04:27","148.787","63.4","215.85","322","60.03","31"
"08/07/12 17:09:27","148.7916","62.4","216.38","310","60.03","31"
"08/07/12 17:14:28","148.7954","63.8","215.93","138","60.03","31"
"08/07/12 17:19:27","148.7993","36.2","216.45","89","60.03","31"
"08/07/12 17:24:27","148.8032","42.0","214.44","308","60.0","30"
"08/07/12 17:29:28","148.8069","52.3","215.53","315","60.03","30"
"08/07/12 17:34:27","148.8102","36.8","214.84","92","60.0","30"
"08/07/12 17:39:27","148.8133","41.9","214.99","182","60.03","29"
"08/07/12 17:44:27","148.8161","36.1","215.19","247","60.0","29"
"08/07/12 17:49:26","148.8185","32.7","215.57","187","60.03","29"
"08/07/12 17:54:27","148.8206","14.2","215.17","322","60.03","29"
"08/07/12 17:59:27","148.8225","30.7","214.61","130","60.03","28"
"08/07/12 18:04:26","148.8241","26.4","215.03","122","60.03","28"
"08/07/12 18:09:27","148.8255","12.0","214.8","72","60.0","28"
"08/07/12 18:14:26","148.8266","12.9","215.04","15","60.0","28"
"08/07/12 18:19:27","148.8275","12.6","214.62","13","60.03","28"
"08/07/12 18:24:27","148.8282","8.0","215.04","0","60.03","27"
"08/07/12 18:29:27","148.8288","15.4","214.31","1","60.03","27"
"08/07/12 18:34:28","148.8293","13.8","214.62","2","60.0","27"
"08/07/12 18:39:27","148.8297","10.1","215.72","114","60.07","27"
"08/07/12 18:44:27","148.8302","10.7","215.04","2","60.0","27"
"08/07/12 18:49:28","148.8307","0.0","214.11","0","60.03","26"
"08/07/12 18:54:27","148.8311","15.2","214.2","59","60.07","26"
"08/07/12 18:59:28","148.8318","13.9","214.29","0","60.03","26"
"08/07/12 19:04:27","148.8324","13.6","213.4","0","60.03","26"
"08/07/12 19:09:30","148.8332","0.0","213.79","0","60.0","26"
"08/07/12 19:14:26","148.8338","15.3","213.73","0","60.0","26"
"08/07/12 19:19:27","148.8343","6.1","213.87","180","60.0","26"
"08/07/12 19:24:27","148.8346","0.0","213.81","0","60.0","26"
"08/08/12 06:34:31","148.8358","14.3","213.89","1","60.03","18"
"08/08/12 06:39:31","148.836","0.0","214.23","0","60.03","18"
"08/08/12 06:44:32","148.8364","6.1","213.9","160","60.03","18"
"08/08/12 06:49:31","148.8367","0.0","213.86","0","60.0","18"
"08/08/12 06:54:31","148.8372","0.0","213.65","224","60.0","18"
"08/08/12 06:59:31","148.8378","0.0","214.46","0","60.0","18"
"08/08/12 07:04:31","148.8384","11.3","214.72","45","60.03","19"
"08/08/12 07:09:31","148.8391","13.2","215.17","2","60.03","19"
"08/08/12 07:14:31","148.84","14.4","214.94","30","60.0","19"
"08/08/12 07:19:32","148.8407","13.9","215.62","0","60.03","19"
"08/08/12 07:24:30","148.8415","8.0","214.29","258","60.03","19"
"08/08/12 07:29:31","148.8429","28.7","214.28","111","60.0","20"
"08/08/12 07:34:31","148.8455","51.2","214.32","355","60.03","20"
"08/08/12 07:39:31","148.8486","40.2","214.22","105","60.03","21"
"08/08/12 07:44:31","148.8515","32.2","213.63","148","60.03","22"
"08/08/12 07:49:31","148.8539","16.6","213.03","233","60.0","22"
"08/08/12 07:54:31","148.8559","23.7","214.05","241","60.03","22"
"08/08/12 07:59:31","148.8578","19.1","213.67","237","60.03","22"
"08/08/12 08:04:32","148.8592","11.6","213.89","17","60.0","23"
"08/08/12 08:09:32","148.8601","13.8","213.55","40","60.03","23"
"08/08/12 08:14:30","148.8609","12.9","213.18","66","60.03","23"
"08/08/12 08:19:31","148.8619","13.6","213.7","2","60.0","23"
"08/08/12 08:24:31","148.8631","18.3","214.23","178","60.0","23"
"08/08/12 08:29:31","148.8644","27.2","213.49","38","60.07","23"
"08/08/12 08:34:31","148.8667","30.6","213.67","246","60.0","23"
"08/08/12 08:39:31","148.8689","34.5","213.88","158","60.0","23"
"08/08/12 08:44:31","148.8708","15.5","213.39","276","60.03","24"
"08/08/12 08:49:30","148.8718","0.0","213.61","0","60.0","24"
"08/08/12 08:54:30","148.8729","14.7","214.09","1","60.03","24"
"08/08/12 08:59:31","148.8737","13.3","214.23","1","60.0","24"
"08/08/12 09:04:31","148.8741","12.2","214.43","7","60.03","23"
"08/08/12 09:09:30","148.8751","11.4","213.53","252","60.03","24"
"08/08/12 09:14:31","148.8765","11.5","213.97","262","60.03","24"
"08/08/12 09:19:30","148.8784","26.5","214.15","66","60.03","24"
"08/08/12 09:24:30","148.8806","25.6","214.03","270","60.0","24"
"08/08/12 09:29:31","148.8828","26.2","214.2","181","60.0","24"
"08/08/12 09:34:31","148.8859","44.2","214.48","403","60.0","24"
"08/08/12 09:39:31","148.8899","80.4","215.25","397","60.03","25"
"08/08/12 09:44:32","148.8986","49.1","215.04","141","60.0","26"
"08/08/12 09:49:31","148.9025","40.3","214.24","93","60.0","27"
"08/08/12 09:54:30","148.9063","35.6","214.2","97","60.0","27"
"08/08/12 09:59:31","148.9095","32.8","214.08","246","60.03","28"
"08/08/12 10:04:30","148.9122","31.2","214.38","102","60.0","28"
"08/08/12 10:09:30","148.9163","92.1","215.81","443","60.0","28"
"08/08/12 10:14:30","148.9216","64.0","213.69","328","60.03","29"
"08/08/12 10:19:31","148.9256","54.6","214.47","377","60.0","29"
"08/08/12 10:24:31","148.9308","65.3","215.71","331","60.03","29"
"08/08/12 10:29:31","148.9365","79.9","215.44","387","60.03","29"
"08/08/12 10:34:30","148.9413","45.6","214.85","163","59.96","29"
"08/08/12 10:39:31","148.9439","28.4","214.47","252","60.0","29"
"08/08/12 10:44:32","148.9466","33.5","214.29","215","60.0","29"
"08/08/12 10:49:32","148.9486","13.5","213.84","175","60.03","29"
"08/08/12 10:54:30","148.9503","20.2","214.21","27","60.03","28"
"08/08/12 10:59:31","148.9518","16.6","214.73","8","60.03","28"
"08/08/12 11:04:31","148.953","23.6","215.39","241","60.0","28"
"08/08/12 11:09:30","148.9544","21.2","214.08","13","60.03","27"
"08/08/12 11:14:31","148.9562","39.0","214.67","214","60.03","27"
"08/08/12 11:19:31","148.9587","35.3","215.13","95","60.03","27"
"08/08/12 11:24:30","148.9624","51.0","215.24","258","60.03","27"
"08/08/12 11:29:31","148.9658","40.3","214.34","212","60.03","27"
"08/08/12 11:34:31","148.9689","35.3","214.67","186","60.0","27"
"08/08/12 11:39:31","148.9718","44.9","213.93","121","60.0","27"
"08/08/12 11:44:31","148.9745","33.0","213.49","146","60.0","27"
"08/08/12 11:49:32","148.9766","25.4","214.65","208","60.0","27"
"08/08/12 11:54:30","148.9794","48.4","214.47","344","60.03","27"
"08/08/12 11:59:30","148.9825","37.8","214.72","121","60.03","27"
"08/08/12 12:04:30","148.9859","45.1","214.67","144","60.03","27"
"08/08/12 12:09:30","148.9893","41.5","214.81","247","60.03","27"
"08/08/12 12:14:31","148.9932","58.8","215.11","151","60.03","27"
"08/08/12 12:19:30","148.9979","75.0","216.04","371","60.03","27"
"08/08/12 12:24:31","149.0028","49.5","214.69","372","60.03","28"
"08/08/12 12:29:31","149.0067","62.1","215.6","262","60.03","28"
"08/08/12 12:34:31","149.0113","75.0","215.43","371","60.07","28"
"08/08/12 12:39:30","149.0179","93.7","214.56","450","60.03","29"
"08/08/12 12:44:30","149.0244","75.7","214.99","376","60.03","29"
"08/08/12 12:49:30","149.0304","69.6","214.45","349","60.03","29"
"08/08/12 12:54:30","149.0356","71.1","215.48","353","60.03","29"
"08/08/12 12:59:31","149.0428","119.7","216.74","561","60.03","30"
"08/08/12 13:04:31","149.0529","130.3","216.6","608","60.07","31"
"08/08/12 13:09:31","149.0624","85.5","216.39","417","60.0","32"
"08/08/12 13:14:30","149.0704","93.9","216.9","446","60.03","32"
"08/08/12 13:19:31","149.0755","61.7","215.27","242","60.03","32"
"08/08/12 13:24:32","149.0794","49.8","215.41","403","60.03","32"
"08/08/12 13:29:32","149.0828","36.1","215.32","205","60.03","31"
"08/08/12 13:34:31","149.0857","29.1","215.07","94","60.03","30"
"08/08/12 13:39:31","149.088","35.4","214.89","123","60.0","30"
"08/08/12 13:44:31","149.0898","23.1","214.95","95","60.0","29"
"08/08/12 13:49:32","149.0918","25.7","214.68","199","60.03","29"
"08/08/12 13:54:32","149.0942","34.7","215.13","153","60.03","28"
"08/08/12 13:59:30","149.0965","33.1","214.63","221","60.03","28"
"08/08/12 14:04:31","149.099","42.0","215.24","177","60.07","28"
"08/08/12 14:09:31","149.102","32.9","215.32","96","60.0","28"
"08/08/12 14:14:30","149.1048","31.3","214.73","213","60.03","27"
"08/08/12 14:19:31","149.1078","46.4","214.75","126","60.03","27"
"08/08/12 14:24:31","149.1108","42.7","215.56","319","60.0","27"
"08/08/12 14:29:31","149.1139","45.8","215.13","273","60.03","27"
"08/08/12 14:34:32","149.117","44.2","215.18","249","60.03","27"
"08/08/12 14:39:30","149.12","34.2","215.47","84","60.03","27"
"08/08/12 14:44:31","149.1229","42.1","215.2","103","60.0","26"
"08/08/12 14:49:30","149.1259","35.5","215.08","118","60.03","26"
"08/08/12 14:54:30","149.1288","37.9","214.66","116","60.0","26"
"08/08/12 14:59:31","149.1315","40.2","214.07","172","60.03","26"
"08/08/12 15:04:31","149.1342","34.3","214.1","246","60.03","26"